| time (UTC) | temp F | wind direction | speed knots | gust knots | rain 1hr in | rain 24hr in | rain mn in | humidity % | barometer mb |
| 20260504214018 | 74 | 228 | 8.7 | 13.0 | 0.00 | 0.00 | 0.00 | 35 | 1011.4 |
| 20260504214003 | 74 | 235 | 1.7 | 13.0 | 0.00 | 0.00 | 0.00 | 35 | 1012.1 |
| 20260504213514 | 75 | 281 | 2.6 | 4.3 | 0.00 | 0.00 | 0.00 | 36 | 1011.3 |
| 20260504213503 | 75 | 238 | 2.6 | 11.3 | 0.00 | 0.00 | 0.00 | 36 | 1012.3 |
| 20260504213012 | 74 | 208 | 0.9 | 7.0 | 0.00 | 0.00 | 0.00 | 38 | 1011.4 |
| 20260504213003 | 74 | 242 | 2.6 | 11.3 | 0.00 | 0.00 | 0.00 | 37 | 1012.2 |
| 20260504212507 | 75 | 219 | 1.7 | 5.2 | 0.00 | 0.00 | 0.00 | 37 | 1011.5 |
| 20260504212503 | 75 | 238 | 1.7 | 7.0 | 0.00 | 0.00 | 0.00 | 38 | 1012.1 |
| 20260504212024 | 75 | 232 | 1.7 | 7.0 | 0.00 | 0.00 | 0.00 | 38 | 1012.1 |
| 20260504212005 | 75 | 251 | 0.9 | 4.3 | 0.00 | 0.00 | 0.00 | 38 | 1011.2 |
| 20260504211503 | 74 | 214 | 2.6 | 7.0 | 0.00 | 0.00 | 0.00 | 37 | 1012.2 |
| 20260504211501 | 74 | 243 | 4.3 | 6.1 | 0.00 | 0.00 | 0.00 | 36 | 1011.4 |
| 20260504211024 | 74 | 220 | 1.7 | 7.0 | 0.00 | 0.00 | 0.00 | 38 | 1012.1 |
| 20260504210959 | 75 | 179 | 3.5 | 4.3 | 0.00 | 0.00 | 0.00 | 37 | 1011.1 |
| 20260504210503 | 75 | 247 | 1.7 | 7.8 | 0.00 | 0.00 | 0.00 | 37 | 1012.1 |
| 20260504210456 | 75 | 239 | 1.7 | 2.6 | 0.00 | 0.00 | 0.00 | 37 | 1011.2 |
| 20260504210024 | 75 | 241 | 1.7 | 7.8 | 0.00 | 0.00 | 0.00 | 36 | 1012.0 |
| 20260504205952 | 75 | 260 | 3.5 | 7.8 | 0.00 | 0.00 | 0.00 | 35 | 1011.2 |
| 20260504205503 | 75 | 241 | 2.6 | 8.7 | 0.00 | 0.00 | 0.00 | 37 | 1012.1 |
| 20260504205450 | 75 | 252 | 2.6 | 4.3 | 0.00 | 0.00 | 0.00 | 36 | 1011.0 |
| 20260504205024 | 75 | 244 | 2.6 | 8.7 | 0.00 | 0.00 | 0.00 | 36 | 1012.2 |
| 20260504204948 | 75 | 243 | 1.7 | 5.2 | 0.00 | 0.00 | 0.00 | 36 | 1011.1 |
| 20260504204503 | 76 | 243 | 1.7 | 7.8 | 0.00 | 0.00 | 0.00 | 35 | 1012.4 |
| 20260504204446 | 76 | 246 | 2.6 | 5.2 | 0.00 | 0.00 | 0.00 | 36 | 1011.3 |
| 20260504204024 | 75 | 242 | 2.6 | 12.2 | 0.00 | 0.00 | 0.00 | 36 | 1012.2 |
| 20260504203945 | 75 | 250 | 0.9 | 1.7 | 0.00 | 0.00 | 0.00 | 37 | 1011.2 |
| 20260504203524 | 74 | 241 | 4.3 | 13.9 | 0.00 | 0.00 | 0.00 | 36 | 1012.2 |
| 20260504203442 | 73 | 207 | 1.7 | 5.2 | 0.00 | 0.00 | 0.00 | 36 | 1011.3 |
| 20260504203003 | 74 | 245 | 5.2 | 14.8 | 0.00 | 0.00 | 0.00 | 35 | 1012.2 |
| 20260504202938 | 74 | 201 | 2.6 | 12.2 | 0.00 | 0.00 | 0.00 | 36 | 1011.3 |
| 20260504202503 | 73 | 249 | 6.1 | 14.8 | 0.00 | 0.00 | 0.00 | 35 | 1012.4 |
| 20260504202435 | 73 | 222 | 7.8 | 9.6 | 0.00 | 0.00 | 0.00 | 35 | 1011.5 |
| 20260504201931 | 74 | 274 | 6.1 | 8.7 | 0.00 | 0.00 | 0.00 | 35 | 1011.6 |
| 20260504201429 | 74 | 229 | 6.1 | 12.2 | 0.00 | 0.00 | 0.00 | 36 | 1011.6 |
| 20260504200927 | 74 | 225 | 4.3 | 13.0 | 0.00 | 0.00 | 0.00 | 35 | 1011.7 |
| 20260504200423 | 74 | 265 | 7.8 | 11.3 | 0.00 | 0.00 | 0.00 | 35 | 1011.8 |
| 20260504195920 | 75 | 244 | 4.3 | 7.0 | 0.00 | 0.00 | 0.00 | 35 | 1011.8 |
| 20260504195415 | 73 | 221 | 4.3 | 8.7 | 0.00 | 0.00 | 0.00 | 36 | 1012.1 |
| 20260504194912 | 73 | 178 | 4.3 | 7.8 | 0.00 | 0.00 | 0.00 | 35 | 1012.0 |
| 20260504194408 | 73 | 245 | 3.5 | 6.1 | 0.00 | 0.00 | 0.00 | 37 | 1012.1 |
| 20260504193904 | 74 | 229 | 4.3 | 12.2 | 0.00 | 0.00 | 0.00 | 35 | 1012.0 |
| 20260504193401 | 74 | 247 | 0.9 | 12.2 | 0.00 | 0.00 | 0.00 | 36 | 1012.2 |
| 20260504192900 | 75 | 213 | 1.7 | 7.0 | 0.00 | 0.00 | 0.00 | 35 | 1012.2 |
| 20260504192358 | 74 | 258 | 4.3 | 7.0 | 0.00 | 0.00 | 0.00 | 37 | 1012.4 |
| 20260504191856 | 73 | 247 | 0.9 | 4.3 | 0.00 | 0.00 | 0.00 | 36 | 1012.2 |
| 20260504191353 | 73 | 173 | 3.5 | 5.2 | 0.00 | 0.00 | 0.00 | 36 | 1012.3 |
| 20260504190848 | 73 | 235 | 5.2 | 8.7 | 0.00 | 0.00 | 0.00 | 36 | 1012.5 |
| 20260504190344 | 73 | 249 | 6.1 | 7.8 | 0.00 | 0.00 | 0.00 | 35 | 1012.4 |
| 20260504185841 | 73 | 228 | 1.7 | 11.3 | 0.00 | 0.00 | 0.00 | 37 | 1012.4 |
| 20260504185338 | 74 | 153 | 2.6 | 4.3 | 0.00 | 0.00 | 0.00 | 35 | 1012.4 |
| 20260504184834 | 73 | 242 | 0.9 | 2.6 | 0.00 | 0.00 | 0.00 | 37 | 1012.7 |
| 20260504184331 | 72 | 239 | 1.7 | 9.6 | 0.00 | 0.00 | 0.00 | 36 | 1012.7 |
| 20260504183826 | 72 | 231 | 1.7 | 9.6 | 0.00 | 0.00 | 0.00 | 37 | 1012.8 |
| 20260504183324 | 72 | 226 | 2.6 | 7.0 | 0.00 | 0.00 | 0.00 | 36 | 1012.9 |
| 20260504182822 | 73 | 226 | 3.5 | 6.1 | 0.00 | 0.00 | 0.00 | 35 | 1013.0 |
| 20260504182319 | 72 | 241 | 0.9 | 2.6 | 0.00 | 0.00 | 0.00 | 37 | 1012.9 |
| 20260504181816 | 72 | 254 | 4.3 | 7.8 | 0.00 | 0.00 | 0.00 | 35 | 1013.1 |
| 20260504181313 | 71 | 294 | 5.2 | 7.0 | 0.00 | 0.00 | 0.00 | 35 | 1013.0 |
| 20260504180812 | 71 | 228 | 9.6 | 13.9 | 0.00 | 0.00 | 0.00 | 35 | 1013.4 |
| 20260504180310 | 71 | 232 | 6.1 | 8.7 | 0.00 | 0.00 | 0.00 | 36 | 1013.3 |
| 20260504175808 | 72 | 242 | 2.6 | 8.7 | 0.00 | 0.00 | 0.00 | 35 | 1013.5 |
| 20260504175304 | 72 | 189 | 0.0 | 4.3 | 0.00 | 0.00 | 0.00 | 36 | 1013.4 |
| 20260504174803 | 72 | 247 | 2.6 | 5.2 | 0.00 | 0.00 | 0.00 | 36 | 1013.5 |
| 20260504174300 | 71 | 214 | 1.7 | 4.3 | 0.00 | 0.00 | 0.00 | 36 | 1013.5 |
| 20260504173756 | 72 | 240 | 6.1 | 8.7 | 0.00 | 0.00 | 0.00 | 37 | 1013.6 |
| 20260504173253 | 72 | 202 | 2.6 | 5.2 | 0.00 | 0.00 | 0.00 | 38 | 1013.5 |
| 20260504172750 | 71 | 248 | 2.6 | 11.3 | 0.00 | 0.00 | 0.00 | 36 | 1013.8 |
| 20260504172247 | 72 | 204 | 3.5 | 4.3 | 0.00 | 0.00 | 0.00 | 37 | 1013.7 |
| 20260504171743 | 71 | 273 | 3.5 | 9.6 | 0.00 | 0.00 | 0.00 | 36 | 1013.8 |
| 20260504171240 | 73 | 244 | 3.5 | 5.2 | 0.00 | 0.00 | 0.00 | 35 | 1014.0 |
| 20260504170737 | 72 | 233 | 0.0 | 5.2 | 0.00 | 0.00 | 0.00 | 39 | 1013.7 |
| 20260504170234 | 72 | 273 | 3.5 | 6.1 | 0.00 | 0.00 | 0.00 | 36 | 1014.1 |
| 20260504160153 | 69 | 238 | 0.9 | 2.6 | 0.00 | 0.00 | 0.00 | 41 | 1015.1 |
| 20260504151120 | 68 | 254 | 1.7 | 8.7 | 0.00 | 0.00 | 0.00 | 46 | 1015.1 |
| 20260504150618 | 67 | 275 | 3.5 | 8.7 | 0.00 | 0.00 | 0.00 | 46 | 1015.4 |
| 20260504150115 | 68 | 228 | 1.7 | 4.3 | 0.00 | 0.00 | 0.00 | 46 | 1015.3 |
| 20260504141043 | 63 | 226 | 2.6 | 7.0 | 0.00 | 0.00 | 0.00 | 53 | 1015.5 |
| 20260504141003 | 63 | 253 | 2.6 | 9.6 | 0.00 | 0.00 | 0.00 | 53 | 1016.2 |
| 20260504140540 | 64 | 256 | 6.1 | 8.7 | 0.00 | 0.00 | 0.00 | 53 | 1015.8 |
| 20260504140503 | 63 | 246 | 3.5 | 11.3 | 0.00 | 0.00 | 0.00 | 55 | 1016.4 |
| 20260504130504 | 58 | 252 | 3.5 | 7.8 | 0.00 | 0.00 | 0.00 | 64 | 1016.1 |
| 20260504110503 | 49 | 252 | 0.9 | 3.5 | 0.00 | 0.00 | 0.00 | 80 | 1017.4 |
| 20260504110351 | 49 | 255 | 0.9 | 1.7 | 0.00 | 0.00 | 0.00 | 80 | 1016.3 |
| 20260504100503 | 46 | 257 | 0.0 | 0.9 | 0.00 | 0.00 | 0.00 | 81 | 1017.6 |
| 20260504100308 | 46 | 253 | 0.0 | 0.0 | 0.00 | 0.00 | 0.00 | 81 | 1016.6 |
| 20260504081702 | 46 | 249 | 0.0 | 0.0 | 0.00 | 0.00 | 0.00 | 76 | 1016.8 |
| 20260504081503 | 47 | 250 | 0.9 | 1.7 | 0.00 | 0.00 | 0.00 | 76 | 1017.6 |
| 20260504081158 | 47 | 249 | 0.0 | 1.7 | 0.00 | 0.00 | 0.00 | 76 | 1016.6 |
| 20260504081003 | 47 | 254 | 0.9 | 1.7 | 0.00 | 0.00 | 0.00 | 76 | 1017.3 |
| 20260504080655 | 47 | 268 | 1.7 | 1.7 | 0.00 | 0.00 | 0.00 | 76 | 1016.7 |
| 20260504080503 | 47 | 252 | 0.9 | 1.7 | 0.00 | 0.00 | 0.00 | 76 | 1017.4 |
| 20260504080152 | 47 | 257 | 0.9 | 1.7 | 0.00 | 0.00 | 0.00 | 76 | 1016.7 |
| 20260504070119 | 48 | 251 | 0.9 | 1.7 | 0.00 | 0.00 | 0.00 | 72 | 1016.4 |
| 20260504050508 | 49 | 243 | 1.7 | 4.3 | 0.00 | 0.00 | 0.00 | 65 | 1016.3 |
| 20260504050503 | 49 | 251 | 1.7 | 3.5 | 0.00 | 0.00 | 0.00 | 65 | 1016.9 |
| 20260504050005 | 49 | 226 | 1.7 | 4.3 | 0.00 | 0.00 | 0.00 | 64 | 1016.4 |
| 20260504050003 | 49 | 249 | 1.7 | 3.5 | 0.00 | 0.00 | 0.00 | 64 | 1017.0 |
| 20260504045503 | 49 | 250 | 1.7 | 3.5 | 0.00 | 0.00 | 0.00 | 64 | 1017.3 |
| 20260504045500 | 49 | 254 | 2.6 | 4.3 | 0.00 | 0.00 | 0.00 | 64 | 1016.2 |
| 20260504045004 | 49 | 253 | 0.9 | 2.6 | 0.00 | 0.00 | 0.00 | 63 | 1017.2 |
| 20260504044957 | 50 | 226 | 2.6 | 2.6 | 0.00 | 0.00 | 0.00 | 63 | 1016.5 |
| 20260504044504 | 50 | 244 | 1.7 | 6.1 | 0.00 | 0.00 | 0.00 | 63 | 1017.1 |
| 20260504044454 | 50 | 256 | 0.0 | 0.9 | 0.00 | 0.00 | 0.00 | 63 | 1016.3 |
| 20260504044024 | 50 | 243 | 2.6 | 6.1 | 0.00 | 0.00 | 0.00 | 62 | 1017.3 |
| 20260504043952 | 50 | 264 | 3.5 | 6.1 | 0.00 | 0.00 | 0.00 | 62 | 1016.5 |
| 20260504043503 | 50 | 248 | 1.7 | 3.5 | 0.00 | 0.00 | 0.00 | 62 | 1017.0 |
| 20260504043449 | 50 | 233 | 2.6 | 2.6 | 0.00 | 0.00 | 0.00 | 62 | 1016.3 |
| 20260504043003 | 50 | 249 | 1.7 | 2.6 | 0.00 | 0.00 | 0.00 | 61 | 1016.8 |
| 20260504042946 | 50 | 249 | 1.7 | 1.7 | 0.00 | 0.00 | 0.00 | 61 | 1016.1 |
| 20260504042503 | 51 | 246 | 1.7 | 2.6 | 0.00 | 0.00 | 0.00 | 60 | 1016.9 |
| 20260504042442 | 51 | 256 | 1.7 | 1.7 | 0.00 | 0.00 | 0.00 | 59 | 1016.2 |
| 20260504042003 | 51 | 248 | 1.7 | 2.6 | 0.00 | 0.00 | 0.00 | 58 | 1016.9 |
| 20260504041939 | 51 | 252 | 1.7 | 2.6 | 0.00 | 0.00 | 0.00 | 58 | 1016.2 |
| 20260504041503 | 51 | 251 | 1.7 | 5.2 | 0.00 | 0.00 | 0.00 | 58 | 1016.9 |
| 20260504041436 | 51 | 245 | 1.7 | 2.6 | 0.00 | 0.00 | 0.00 | 58 | 1016.1 |
| 20260504041003 | 51 | 250 | 2.6 | 5.2 | 0.00 | 0.00 | 0.00 | 57 | 1016.7 |
| 20260504040931 | 51 | 263 | 0.9 | 2.6 | 0.00 | 0.00 | 0.00 | 57 | 1016.0 |
| 20260504040524 | 51 | 248 | 2.6 | 5.2 | 0.00 | 0.00 | 0.00 | 57 | 1017.1 |
| 20260504040429 | 51 | 275 | 2.6 | 2.6 | 0.00 | 0.00 | 0.00 | 56 | 1016.0 |
| 20260504040005 | 51 | 248 | 1.7 | 3.5 | 0.00 | 0.00 | 0.00 | 57 | 1016.7 |
| 20260504035925 | 51 | 256 | 0.9 | 2.6 | 0.00 | 0.00 | 0.00 | 57 | 1015.9 |
| 20260504035503 | 51 | 252 | 1.7 | 3.5 | 0.00 | 0.00 | 0.00 | 57 | 1016.7 |
| 20260504035423 | 51 | 259 | 2.6 | 2.6 | 0.00 | 0.00 | 0.00 | 57 | 1015.9 |
| 20260504035003 | 51 | 251 | 0.9 | 5.2 | 0.00 | 0.00 | 0.00 | 57 | 1016.7 |
| 20260504034919 | 51 | 227 | 1.7 | 4.3 | 0.00 | 0.00 | 0.00 | 57 | 1015.8 |
| 20260504034503 | 50 | 249 | 0.9 | 5.2 | 0.00 | 0.00 | 0.00 | 57 | 1016.4 |
| 20260504034417 | 50 | 256 | 2.6 | 5.2 | 0.00 | 0.00 | 0.00 | 57 | 1015.7 |
| 20260504034003 | 51 | 250 | 1.7 | 3.5 | 0.00 | 0.00 | 0.00 | 57 | 1016.5 |
| 20260504033914 | 51 | 257 | 1.7 | 1.7 | 0.00 | 0.00 | 0.00 | 58 | 1015.7 |
| 20260504033503 | 50 | 252 | 0.9 | 2.6 | 0.00 | 0.00 | 0.00 | 58 | 1016.8 |
| 20260504033412 | 50 | 243 | 1.7 | 2.6 | 0.00 | 0.00 | 0.00 | 58 | 1015.8 |
| 20260504033003 | 50 | 260 | 0.0 | 1.7 | 0.00 | 0.00 | 0.00 | 59 | 1016.5 |
| 20260504032908 | 50 | 247 | 0.0 | 0.0 | 0.00 | 0.00 | 0.00 | 59 | 1015.8 |
| 20260504032503 | 50 | 260 | 0.0 | 1.7 | 0.00 | 0.00 | 0.00 | 59 | 1016.4 |
| 20260504032405 | 50 | 252 | 0.0 | 0.0 | 0.00 | 0.00 | 0.00 | 59 | 1015.7 |
| 20260504032003 | 49 | 259 | 0.0 | 1.7 | 0.00 | 0.00 | 0.00 | 60 | 1016.6 |
| 20260504031902 | 49 | 259 | 0.9 | 1.7 | 0.00 | 0.00 | 0.00 | 60 | 1015.6 |
| 20260504031503 | 49 | 0 | 0.0 | 0.0 | 0.00 | 0.00 | 0.00 | 60 | 1016.7 |
| 20260504031359 | 50 | 246 | 0.0 | 0.0 | 0.00 | 0.00 | 0.00 | 60 | 1015.7 |
| 20260504031003 | 49 | 0 | 0.0 | 0.0 | 0.00 | 0.00 | 0.00 | 60 | 1016.5 |
| 20260504030855 | 49 | 261 | 0.0 | 0.0 | 0.00 | 0.00 | 0.00 | 61 | 1015.5 |
| 20260504030503 | 49 | 0 | 0.0 | 0.0 | 0.00 | 0.00 | 0.00 | 62 | 1016.4 |
| 20260504030353 | 49 | 251 | 0.0 | 0.0 | 0.00 | 0.00 | 0.00 | 62 | 1015.8 |
| 20260504030003 | 49 | 0 | 0.0 | 0.0 | 0.00 | 0.00 | 0.00 | 62 | 1016.6 |
| 20260504025848 | 49 | 252 | 0.0 | 0.0 | 0.00 | 0.00 | 0.00 | 62 | 1015.6 |
| 20260504025503 | 49 | 0 | 0.0 | 0.0 | 0.00 | 0.00 | 0.00 | 62 | 1016.3 |
| 20260504025345 | 49 | 255 | 0.0 | 0.0 | 0.00 | 0.00 | 0.00 | 62 | 1015.6 |
| 20260504025003 | 49 | 0 | 0.0 | 0.0 | 0.00 | 0.00 | 0.00 | 63 | 1016.6 |
| 20260504024842 | 49 | 250 | 0.0 | 0.0 | 0.00 | 0.00 | 0.00 | 62 | 1015.8 |
| 20260504024503 | 49 | 0 | 0.0 | 0.0 | 0.00 | 0.00 | 0.00 | 63 | 1016.5 |
| 20260504024338 | 49 | 257 | 0.0 | 0.0 | 0.00 | 0.00 | 0.00 | 63 | 1015.7 |
| 20260504024003 | 49 | 0 | 0.0 | 0.0 | 0.00 | 0.00 | 0.00 | 64 | 1016.7 |
| 20260504023836 | 49 | 257 | 0.0 | 0.0 | 0.00 | 0.00 | 0.00 | 63 | 1015.5 |
| 20260504023503 | 49 | 0 | 0.0 | 0.0 | 0.00 | 0.00 | 0.00 | 62 | 1016.7 |
| 20260504023333 | 49 | 251 | 0.0 | 0.0 | 0.00 | 0.00 | 0.00 | 62 | 1015.5 |
| 20260504023003 | 50 | 0 | 0.0 | 0.0 | 0.00 | 0.00 | 0.00 | 62 | 1016.5 |
| 20260504022828 | 50 | 258 | 0.0 | 0.0 | 0.00 | 0.00 | 0.00 | 61 | 1015.8 |
| 20260504022503 | 50 | 0 | 0.0 | 0.0 | 0.00 | 0.00 | 0.00 | 60 | 1016.7 |
| 20260504022325 | 50 | 257 | 0.0 | 0.0 | 0.00 | 0.00 | 0.00 | 61 | 1015.7 |
| 20260504022003 | 50 | 0 | 0.0 | 0.0 | 0.00 | 0.00 | 0.00 | 60 | 1016.5 |
| 20260504021822 | 50 | 257 | 0.0 | 0.0 | 0.00 | 0.00 | 0.00 | 59 | 1015.6 |
| 20260504021524 | 50 | 0 | 0.0 | 0.0 | 0.00 | 0.00 | 0.00 | 57 | 1016.6 |
| 20260504021319 | 50 | 253 | 0.0 | 0.0 | 0.00 | 0.00 | 0.00 | 59 | 1015.7 |
| 20260504021003 | 50 | 0 | 0.0 | 0.0 | 0.00 | 0.00 | 0.00 | 60 | 1016.7 |
| 20260504020816 | 50 | 254 | 0.0 | 0.0 | 0.00 | 0.00 | 0.00 | 60 | 1015.7 |
| 20260504020503 | 50 | 0 | 0.0 | 0.0 | 0.00 | 0.00 | 0.00 | 59 | 1016.7 |
| 20260504020313 | 51 | 252 | 0.0 | 0.0 | 0.00 | 0.00 | 0.00 | 59 | 1015.7 |
| 20260504020003 | 51 | 0 | 0.0 | 0.0 | 0.00 | 0.00 | 0.00 | 58 | 1016.5 |
| 20260504015809 | 51 | 251 | 0.0 | 0.0 | 0.00 | 0.00 | 0.00 | 57 | 1015.6 |
| 20260504015503 | 51 | 0 | 0.0 | 0.0 | 0.00 | 0.00 | 0.00 | 55 | 1016.5 |
| 20260504015305 | 51 | 251 | 0.0 | 0.0 | 0.00 | 0.00 | 0.00 | 56 | 1015.6 |
| 20260504015024 | 51 | 0 | 0.0 | 0.0 | 0.00 | 0.00 | 0.00 | 56 | 1016.4 |
| 20260504014801 | 51 | 255 | 0.0 | 0.0 | 0.00 | 0.00 | 0.00 | 57 | 1015.5 |
| 20260504014503 | 51 | 0 | 0.0 | 0.0 | 0.00 | 0.00 | 0.00 | 57 | 1016.3 |
| 20260504014257 | 51 | 254 | 0.0 | 0.0 | 0.00 | 0.00 | 0.00 | 58 | 1015.3 |
| 20260504014003 | 51 | 0 | 0.0 | 0.0 | 0.00 | 0.00 | 0.00 | 58 | 1016.4 |
| 20260504013755 | 51 | 250 | 0.0 | 0.0 | 0.00 | 0.00 | 0.00 | 58 | 1015.5 |
| 20260504013503 | 51 | 0 | 0.0 | 0.0 | 0.00 | 0.00 | 0.00 | 57 | 1016.4 |
| 20260504013253 | 51 | 250 | 0.0 | 0.0 | 0.00 | 0.00 | 0.00 | 57 | 1015.6 |
| 20260504013003 | 51 | 0 | 0.0 | 0.0 | 0.00 | 0.00 | 0.00 | 58 | 1016.3 |
| 20260504012749 | 51 | 250 | 0.0 | 0.0 | 0.00 | 0.00 | 0.00 | 59 | 1015.6 |
| 20260504012524 | 51 | 0 | 0.0 | 0.0 | 0.00 | 0.00 | 0.00 | 59 | 1016.4 |
| 20260504012247 | 51 | 247 | 0.0 | 0.0 | 0.00 | 0.00 | 0.00 | 58 | 1015.6 |
| 20260504012003 | 51 | 0 | 0.0 | 0.0 | 0.00 | 0.00 | 0.00 | 58 | 1016.1 |
| 20260504011744 | 51 | 250 | 0.0 | 0.0 | 0.00 | 0.00 | 0.00 | 56 | 1015.3 |
| 20260504011503 | 51 | 0 | 0.0 | 0.0 | 0.00 | 0.00 | 0.00 | 56 | 1016.2 |
| 20260504011240 | 51 | 250 | 0.0 | 0.0 | 0.00 | 0.00 | 0.00 | 54 | 1015.2 |
| 20260504011003 | 51 | 0 | 0.0 | 0.0 | 0.00 | 0.00 | 0.00 | 55 | 1016.0 |
| 20260504010737 | 51 | 250 | 0.0 | 0.0 | 0.00 | 0.00 | 0.00 | 56 | 1015.2 |
| 20260504010503 | 51 | 0 | 0.0 | 0.0 | 0.00 | 0.00 | 0.00 | 55 | 1016.1 |
| 20260504010232 | 51 | 250 | 0.0 | 0.0 | 0.00 | 0.00 | 0.00 | 56 | 1015.2 |
| 20260504010004 | 52 | 0 | 0.0 | 0.0 | 0.00 | 0.00 | 0.00 | 56 | 1016.0 |
| 20260504005729 | 52 | 249 | 0.0 | 0.0 | 0.00 | 0.00 | 0.00 | 56 | 1015.1 |
| 20260504005503 | 52 | 0 | 0.0 | 0.0 | 0.00 | 0.00 | 0.00 | 55 | 1015.9 |
| 20260504005226 | 52 | 247 | 0.0 | 0.0 | 0.00 | 0.00 | 0.00 | 55 | 1014.9 |
| 20260504005004 | 52 | 0 | 0.0 | 0.0 | 0.00 | 0.00 | 0.00 | 54 | 1015.8 |
| 20260504004724 | 53 | 249 | 0.0 | 0.0 | 0.00 | 0.00 | 0.00 | 54 | 1014.8 |
| 20260504004503 | 53 | 0 | 0.0 | 0.0 | 0.00 | 0.00 | 0.00 | 53 | 1015.9 |
| 20260504004220 | 53 | 250 | 0.0 | 0.0 | 0.00 | 0.00 | 0.00 | 51 | 1015.0 |
| 20260504004003 | 53 | 0 | 0.0 | 0.0 | 0.00 | 0.00 | 0.00 | 51 | 1016.0 |
| 20260504003718 | 54 | 250 | 0.0 | 0.0 | 0.00 | 0.00 | 0.00 | 50 | 1014.9 |
| 20260504003503 | 54 | 0 | 0.0 | 0.0 | 0.00 | 0.00 | 0.00 | 50 | 1015.7 |
| 20260504003214 | 55 | 250 | 0.0 | 0.0 | 0.00 | 0.00 | 0.00 | 47 | 1014.9 |
| 20260504003003 | 55 | 246 | 0.0 | 0.9 | 0.00 | 0.00 | 0.00 | 46 | 1015.5 |
| 20260504002711 | 55 | 251 | 0.0 | 0.0 | 0.00 | 0.00 | 0.00 | 45 | 1014.9 |
| 20260504002503 | 56 | 245 | 0.0 | 1.7 | 0.00 | 0.00 | 0.00 | 45 | 1015.6 |
| 20260504002208 | 56 | 246 | 0.0 | 0.0 | 0.00 | 0.00 | 0.00 | 44 | 1014.7 |
| 20260504002003 | 56 | 244 | 0.9 | 2.6 | 0.00 | 0.00 | 0.00 | 43 | 1015.7 |
| 20260504001706 | 57 | 247 | 0.0 | 1.7 | 0.00 | 0.00 | 0.00 | 43 | 1014.7 |
| 20260504001524 | 57 | 245 | 1.7 | 3.5 | 0.00 | 0.00 | 0.00 | 42 | 1015.5 |
| 20260504001202 | 57 | 239 | 1.7 | 1.7 | 0.00 | 0.00 | 0.00 | 42 | 1014.6 |
| 20260504001003 | 57 | 247 | 0.9 | 3.5 | 0.00 | 0.00 | 0.00 | 42 | 1015.3 |
| 20260504000659 | 57 | 225 | 0.9 | 1.7 | 0.00 | 0.00 | 0.00 | 41 | 1014.4 |
| 20260504000503 | 57 | 247 | 0.9 | 2.6 | 0.00 | 0.00 | 0.00 | 42 | 1015.4 |
| 20260504000156 | 57 | 248 | 0.0 | 0.9 | 0.00 | 0.00 | 0.00 | 41 | 1014.4 |
| 20260504000003 | 57 | 249 | 0.9 | 2.6 | 0.00 | 0.00 | 0.00 | 42 | 1015.1 |
| 20260503235654 | 58 | 250 | 0.0 | 2.6 | 0.00 | 0.00 | 0.00 | 41 | 1014.5 |
| 20260503235503 | 58 | 246 | 1.7 | 5.2 | 0.00 | 0.00 | 0.00 | 40 | 1015.2 |
| 20260503235151 | 58 | 253 | 0.9 | 4.3 | 0.00 | 0.00 | 0.00 | 40 | 1014.5 |
| 20260503235003 | 58 | 244 | 0.9 | 5.2 | 0.00 | 0.00 | 0.00 | 39 | 1015.0 |
| 20260503234649 | 58 | 245 | 0.9 | 1.7 | 0.00 | 0.00 | 0.00 | 40 | 1014.4 |
| 20260503234503 | 58 | 245 | 0.9 | 5.2 | 0.00 | 0.00 | 0.00 | 39 | 1015.3 |
| 20260503234147 | 58 | 248 | 0.0 | 0.9 | 0.00 | 0.00 | 0.00 | 40 | 1014.6 |
| 20260503234003 | 58 | 246 | 1.7 | 5.2 | 0.00 | 0.00 | 0.00 | 40 | 1015.2 |
| 20260503233643 | 59 | 235 | 0.9 | 2.6 | 0.00 | 0.00 | 0.00 | 38 | 1014.3 |
| 20260503233503 | 59 | 242 | 1.7 | 5.2 | 0.00 | 0.00 | 0.00 | 39 | 1015.1 |
| 20260503233139 | 59 | 241 | 2.6 | 4.3 | 0.00 | 0.00 | 0.00 | 38 | 1014.5 |
| 20260503233003 | 59 | 239 | 2.6 | 8.7 | 0.00 | 0.00 | 0.00 | 37 | 1015.1 |
| 20260503232636 | 59 | 247 | 0.9 | 4.3 | 0.00 | 0.00 | 0.00 | 38 | 1014.2 |
| 20260503232503 | 59 | 243 | 3.5 | 8.7 | 0.00 | 0.00 | 0.00 | 37 | 1015.1 |
| 20260503232133 | 59 | 247 | 3.5 | 7.0 | 0.00 | 0.00 | 0.00 | 36 | 1014.3 |
| 20260503232003 | 59 | 240 | 3.5 | 11.3 | 0.00 | 0.00 | 0.00 | 37 | 1015.1 |
| 20260503231631 | 59 | 250 | 2.6 | 7.8 | 0.00 | 0.00 | 0.00 | 37 | 1014.2 |
| 20260503231503 | 59 | 236 | 3.5 | 11.3 | 0.00 | 0.00 | 0.00 | 37 | 1015.1 |
| 20260503231127 | 60 | 244 | 2.6 | 4.3 | 0.00 | 0.00 | 0.00 | 37 | 1014.2 |
| 20260503231003 | 60 | 242 | 2.6 | 7.8 | 0.00 | 0.00 | 0.00 | 37 | 1015.0 |
| 20260503230625 | 59 | 235 | 0.9 | 4.3 | 0.00 | 0.00 | 0.00 | 37 | 1014.1 |
| 20260503230503 | 59 | 248 | 1.7 | 6.1 | 0.00 | 0.00 | 0.00 | 38 | 1014.9 |
| 20260503230122 | 59 | 258 | 4.3 | 5.2 | 0.00 | 0.00 | 0.00 | 37 | 1014.0 |
| 20260503230003 | 59 | 246 | 1.7 | 7.0 | 0.00 | 0.00 | 0.00 | 37 | 1015.0 |
| 20260503225619 | 60 | 246 | 3.5 | 4.3 | 0.00 | 0.00 | 0.00 | 37 | 1014.2 |
| 20260503225503 | 60 | 241 | 2.6 | 8.7 | 0.00 | 0.00 | 0.00 | 37 | 1014.9 |
| 20260503225118 | 60 | 245 | 0.9 | 1.7 | 0.00 | 0.00 | 0.00 | 37 | 1014.2 |
| 20260503225003 | 60 | 244 | 3.5 | 9.6 | 0.00 | 0.00 | 0.00 | 37 | 1014.9 |
| 20260503224616 | 60 | 249 | 1.7 | 7.0 | 0.00 | 0.00 | 0.00 | 37 | 1014.1 |
| 20260503224503 | 60 | 246 | 2.6 | 9.6 | 0.00 | 0.00 | 0.00 | 36 | 1015.1 |
| 20260503224114 | 60 | 228 | 2.6 | 9.6 | 0.00 | 0.00 | 0.00 | 36 | 1014.2 |
| 20260503224003 | 60 | 247 | 1.7 | 6.1 | 0.00 | 0.00 | 0.00 | 36 | 1014.9 |
| 20260503223612 | 60 | 239 | 1.7 | 2.6 | 0.00 | 0.00 | 0.00 | 37 | 1014.2 |
| 20260503223503 | 60 | 251 | 1.7 | 6.1 | 0.00 | 0.00 | 0.00 | 36 | 1015.1 |
| 20260503223108 | 60 | 280 | 2.6 | 4.3 | 0.00 | 0.00 | 0.00 | 36 | 1014.2 |
| 20260503223003 | 60 | 252 | 1.7 | 7.0 | 0.00 | 0.00 | 0.00 | 36 | 1015.0 |
| 20260503222606 | 60 | 340 | 2.6 | 7.0 | 0.00 | 0.00 | 0.00 | 35 | 1014.0 |
| 20260503222503 | 61 | 251 | 2.6 | 7.0 | 0.00 | 0.00 | 0.00 | 34 | 1015.0 |
| 20260503222103 | 61 | 242 | 3.5 | 6.1 | 0.00 | 0.00 | 0.00 | 34 | 1014.4 |
| 20260503222003 | 61 | 247 | 2.6 | 7.8 | 0.00 | 0.00 | 0.00 | 35 | 1014.8 |
| 20260503221601 | 61 | 263 | 4.3 | 4.3 | 0.00 | 0.00 | 0.00 | 34 | 1014.1 |
| 20260503221503 | 61 | 252 | 3.5 | 11.3 | 0.00 | 0.00 | 0.00 | 34 | 1015.1 |
| 20260503221059 | 61 | 215 | 2.6 | 7.0 | 0.00 | 0.00 | 0.00 | 34 | 1014.2 |
| 20260503221024 | 61 | 253 | 4.3 | 12.2 | 0.00 | 0.00 | 0.00 | 34 | 1015.1 |
| 20260503220555 | 61 | 259 | 7.8 | 11.3 | 0.00 | 0.00 | 0.00 | 34 | 1014.3 |
| 20260503220503 | 61 | 252 | 3.5 | 12.2 | 0.00 | 0.00 | 0.00 | 34 | 1015.1 |
| 20260503220052 | 62 | 229 | 2.6 | 7.0 | 0.00 | 0.00 | 0.00 | 35 | 1014.1 |
| 20260503220003 | 62 | 253 | 2.6 | 9.6 | 0.00 | 0.00 | 0.00 | 35 | 1015.1 |
| 20260503215549 | 62 | 268 | 1.7 | 9.6 | 0.00 | 0.00 | 0.00 | 35 | 1014.2 |
| 20260503215524 | 62 | 249 | 3.5 | 11.3 | 0.00 | 0.00 | 0.00 | 35 | 1015.0 |
| 20260503215046 | 62 | 231 | 1.7 | 6.1 | 0.00 | 0.00 | 0.00 | 34 | 1014.2 |
| 20260503215003 | 62 | 248 | 3.5 | 12.2 | 0.00 | 0.00 | 0.00 | 34 | 1014.9 |
| 20260503214544 | 61 | 239 | 3.5 | 7.8 | 0.00 | 0.00 | 0.00 | 33 | 1014.1 |
| 20260503214503 | 61 | 249 | 2.6 | 12.2 | 0.00 | 0.00 | 0.00 | 34 | 1014.9 |